Location: Heppenheim
(49.6410°N, 8.6370°E)
Time: 19:54:07
(UTC+02:00)

ISS - Visible Passes

Search period start: 26 July 2021 00:00
Search period end: 05 August 2021 00:00
Orbit: 419 x 421 km, 51.6° (Epoch: 26 July)

Date Brightness Start Highest point End Pass type
(mag) Time Alt. Az. Time Alt. Az. Time Alt. Az.
26 Jul -1.1 00:45:38 10° W 00:45:55 11° WSW 00:45:55 11° WSW visible
26 Jul -3.8 22:20:44 10° WNW 22:24:08 88° S 22:27:10 12° ESE visible
26 Jul -2.1 23:57:53 10° W 00:00:07 22° SW 00:00:07 22° SW visible
27 Jul -2.8 23:10:22 10° W 23:13:28 33° SSW 23:14:21 28° S visible
28 Jul -3.3 22:22:57 10° WNW 22:26:14 48° SSW 22:28:38 16° SE visible
29 Jul -1.7 23:13:10 10° W 23:15:18 16° SW 23:15:54 15° SSW visible
30 Jul -2.1 22:25:25 10° W 22:28:09 23° SW 22:30:16 13° S visible
01 Aug -1.0 22:29:29 10° SW 22:29:52 10° SW 22:30:16 10° SW visible
02 Aug -1.3 21:40:40 10° W 21:42:46 16° SW 21:44:51 10° S visible
